FDX5062 KMEM-KSLC

Flight info

Callsign FDX5062
Flight time 2h 58m
Altitude 34000
Route DUCKZ5 HELAR ICT OATHE RACER PITTT2
Aircraft B738/M-SDE2E3FGHIRWXY/LB1

Departure

Time 2026-05-06 17:12
Airport Memphis International Airport (KMEM)

Arrival

Time 2026-05-06 20:11
Airport Salt Lake City International Airport (KSLC)
Time Latitude Longitude Altitude Speed Heading
2026-05-06 16:37 35.06383 -89.97620 330 ft 0 kts 270°
2026-05-06 16:54 35.06383 -89.97611 325 ft 4 kts 268°
2026-05-06 16:55 35.06387 -89.97579 325 ft 4 kts 251°
2026-05-06 16:55 35.06399 -89.97552 325 ft 4 kts 213°
2026-05-06 16:55 35.06412 -89.97545 330 ft 0 kts 180°
2026-05-06 16:58 35.06374 -89.97544 330 ft 8 kts 179°
2026-05-06 16:58 35.06314 -89.97543 330 ft 9 kts 179°
2026-05-06 16:58 35.06255 -89.97541 326 ft 9 kts 178°
2026-05-06 16:59 35.06194 -89.97537 326 ft 9 kts 176°
2026-05-06 16:59 35.06135 -89.97533 328 ft 9 kts 178°
2026-05-06 16:59 35.06066 -89.97534 325 ft 11 kts 181°
2026-05-06 16:59 35.05988 -89.97544 328 ft 11 kts 204°
2026-05-06 17:00 35.05969 -89.97629 325 ft 11 kts 281°
2026-05-06 17:00 35.05989 -89.97722 326 ft 12 kts 284°
2026-05-06 17:00 35.06004 -89.97825 330 ft 13 kts 277°
2026-05-06 17:00 35.06010 -89.97933 326 ft 13 kts 271°
2026-05-06 17:01 35.06012 -89.98056 330 ft 18 kts 271°
2026-05-06 17:01 35.06015 -89.98218 329 ft 19 kts 271°
2026-05-06 17:01 35.06020 -89.98375 328 ft 18 kts 272°
2026-05-06 17:01 35.05987 -89.98498 326 ft 16 kts 206°
2026-05-06 17:02 35.05883 -89.98505 326 ft 15 kts 178°
2026-05-06 17:02 35.05775 -89.98502 326 ft 16 kts 179°
2026-05-06 17:02 35.05645 -89.98505 327 ft 22 kts 181°
2026-05-06 17:02 35.05494 -89.98506 329 ft 21 kts 180°
2026-05-06 17:03 35.05348 -89.98506 329 ft 21 kts 181°
2026-05-06 17:03 35.05206 -89.98510 326 ft 20 kts 181°
2026-05-06 17:03 35.05072 -89.98540 330 ft 19 kts 206°
2026-05-06 17:03 35.04949 -89.98600 327 ft 19 kts 188°
2026-05-06 17:04 35.04823 -89.98606 328 ft 18 kts 179°
2026-05-06 17:04 35.04698 -89.98602 326 ft 18 kts 179°
2026-05-06 17:04 35.04578 -89.98598 328 ft 17 kts 179°
2026-05-06 17:04 35.04462 -89.98597 328 ft 16 kts 179°
2026-05-06 17:05 35.04350 -89.98592 329 ft 16 kts 177°
2026-05-06 17:05 35.04243 -89.98583 327 ft 15 kts 175°
2026-05-06 17:05 35.04140 -89.98580 327 ft 14 kts 181°
2026-05-06 17:05 35.04042 -89.98583 325 ft 14 kts 181°
2026-05-06 17:06 35.03948 -89.98584 325 ft 13 kts 180°
2026-05-06 17:06 35.03846 -89.98582 326 ft 15 kts 178°
2026-05-06 17:06 35.03740 -89.98577 328 ft 15 kts 179°
2026-05-06 17:06 35.03633 -89.98577 327 ft 17 kts 179°
2026-05-06 17:07 35.03509 -89.98575 326 ft 18 kts 179°
2026-05-06 17:07 35.03388 -89.98573 326 ft 17 kts 179°
2026-05-06 17:07 35.03270 -89.98571 328 ft 17 kts 179°
2026-05-06 17:07 35.03158 -89.98569 326 ft 16 kts 179°
2026-05-06 17:08 35.03049 -89.98566 327 ft 15 kts 178°
2026-05-06 17:08 35.02947 -89.98562 329 ft 15 kts 179°
2026-05-06 17:08 35.02847 -89.98562 326 ft 14 kts 181°
2026-05-06 17:08 35.02751 -89.98562 327 ft 13 kts 178°
2026-05-06 17:09 35.02660 -89.98558 327 ft 13 kts 178°
2026-05-06 17:09 35.02566 -89.98555 327 ft 14 kts 178°
2026-05-06 17:09 35.02476 -89.98551 328 ft 11 kts 176°
2026-05-06 17:09 35.02414 -89.98565 326 ft 4 kts 227°
2026-05-06 17:10 35.02414 -89.98566 325 ft 0 kts 230°
2026-05-06 17:10 35.02412 -89.98570 327 ft 3 kts 239°
2026-05-06 17:11 35.02403 -89.98618 326 ft 8 kts 269°
2026-05-06 17:11 35.02422 -89.98685 327 ft 9 kts 321°
2026-05-06 17:11 35.02481 -89.98696 329 ft 9 kts
2026-05-06 17:11 35.02578 -89.98695 328 ft 38 kts 360°
2026-05-06 17:12 35.02883 -89.98700 327 ft 93 kts 359°
2026-05-06 17:12 35.04161 -89.98731 405 ft 176 kts 359°
2026-05-06 17:12 35.05398 -89.98812 1364 ft 174 kts 355°
2026-05-06 17:12 35.06576 -89.98913 2511 ft 172 kts 359°
2026-05-06 17:13 35.07863 -89.98973 2893 ft 200 kts 347°
2026-05-06 17:13 35.09111 -89.99842 3121 ft 220 kts 316°
2026-05-06 17:13 35.09863 -90.00727 3320 ft 232 kts 320°
2026-05-06 17:13 35.11763 -90.02037 4068 ft 238 kts 331°
2026-05-06 17:14 35.12727 -90.02690 4427 ft 241 kts 326°
2026-05-06 17:14 35.13868 -90.04148 5009 ft 239 kts 295°
2026-05-06 17:14 35.14338 -90.06710 5821 ft 237 kts 262°
2026-05-06 17:14 35.13991 -90.08664 6463 ft 235 kts 257°
2026-05-06 17:15 35.13637 -90.10621 7076 ft 236 kts 257°
2026-05-06 17:15 35.13287 -90.12591 7670 ft 237 kts 257°
2026-05-06 17:15 35.12900 -90.14556 8412 ft 237 kts 256°
2026-05-06 17:15 35.12564 -90.16534 9063 ft 239 kts 258°
2026-05-06 17:16 35.12354 -90.17857 9510 ft 239 kts 258°
2026-05-06 17:16 35.11985 -90.19814 10253 ft 236 kts 254°
2026-05-06 17:16 35.11590 -90.21780 10851 ft 241 kts 257°
2026-05-06 17:16 35.11135 -90.24630 11123 ft 273 kts 259°
2026-05-06 17:17 35.10904 -90.26202 11215 ft 285 kts 257°
2026-05-06 17:17 35.10500 -90.28621 11345 ft 304 kts 257°
2026-05-06 17:17 35.10030 -90.31198 11532 ft 321 kts 256°
2026-05-06 17:17 35.09570 -90.33904 12120 ft 327 kts 258°
2026-05-06 17:18 35.09109 -90.36627 12856 ft 328 kts 257°
2026-05-06 17:18 35.08630 -90.39352 13559 ft 329 kts 257°
2026-05-06 17:18 35.08146 -90.42086 14286 ft 329 kts 257°
2026-05-06 17:18 35.07663 -90.44813 15021 ft 328 kts 257°
2026-05-06 17:19 35.07027 -90.48426 15932 ft 329 kts 257°
2026-05-06 17:19 35.06701 -90.50275 16388 ft 329 kts 257°
2026-05-06 17:19 35.06221 -90.53003 17061 ft 329 kts 257°
2026-05-06 17:19 35.05747 -90.55703 17690 ft 330 kts 257°
2026-05-06 17:20 35.05266 -90.58435 18378 ft 329 kts 257°
2026-05-06 17:20 35.04783 -90.61174 18965 ft 331 kts 257°
2026-05-06 17:20 35.04297 -90.63931 19443 ft 335 kts 257°
2026-05-06 17:20 35.03804 -90.66721 19954 ft 337 kts 257°
2026-05-06 17:21 35.03308 -90.69521 20475 ft 339 kts 257°
2026-05-06 17:21 35.02806 -90.72345 20968 ft 341 kts 258°
2026-05-06 17:21 35.02413 -90.75210 21455 ft 344 kts 263°
2026-05-06 17:21 35.02365 -90.78137 21899 ft 348 kts 269°
2026-05-06 17:22 35.02431 -90.81092 22357 ft 349 kts 268°
2026-05-06 17:22 35.02572 -90.84026 22737 ft 355 kts 275°
2026-05-06 17:22 35.03158 -90.86979 23145 ft 361 kts 281°
2026-05-06 17:22 35.04015 -90.89883 23532 ft 368 kts 287°
2026-05-06 17:23 35.05197 -90.92690 23909 ft 375 kts 291°
2026-05-06 17:23 35.06462 -90.95474 24286 ft 376 kts 291°
2026-05-06 17:23 35.07728 -90.98283 24655 ft 378 kts 291°
2026-05-06 17:23 35.08990 -91.01094 25041 ft 379 kts 291°
2026-05-06 17:24 35.10255 -91.03925 25363 ft 381 kts 290°
2026-05-06 17:24 35.11523 -91.06766 25757 ft 381 kts 290°
2026-05-06 17:24 35.12775 -91.09578 26110 ft 382 kts 290°
2026-05-06 17:24 35.14046 -91.12435 26440 ft 383 kts 290°
2026-05-06 17:25 35.15318 -91.15304 26731 ft 385 kts 290°
2026-05-06 17:25 35.16597 -91.18187 27043 ft 386 kts 290°
2026-05-06 17:25 35.17880 -91.21079 27337 ft 388 kts 290°
2026-05-06 17:25 35.19168 -91.23986 27593 ft 390 kts 290°
2026-05-06 17:26 35.20461 -91.26908 27866 ft 391 kts 290°
2026-05-06 17:26 35.21757 -91.29840 28171 ft 392 kts 290°
2026-05-06 17:26 35.23053 -91.32774 28449 ft 393 kts 290°
2026-05-06 17:26 35.24351 -91.35717 28755 ft 393 kts 290°
2026-05-06 17:27 35.25648 -91.38661 29011 ft 394 kts 290°
2026-05-06 17:27 35.26933 -91.41578 29327 ft 393 kts 290°
2026-05-06 17:27 35.28226 -91.44507 29775 ft 390 kts 289°
2026-05-06 17:27 35.29510 -91.47421 30105 ft 389 kts 289°
2026-05-06 17:28 35.30795 -91.50345 30402 ft 389 kts 289°
2026-05-06 17:28 35.32072 -91.53251 30763 ft 387 kts 289°
2026-05-06 17:28 35.33342 -91.56144 31199 ft 383 kts 289°
2026-05-06 17:28 35.34596 -91.58997 31701 ft 378 kts 289°
2026-05-06 17:29 35.35837 -91.61825 32111 ft 375 kts 289°
2026-05-06 17:29 35.37067 -91.64635 32427 ft 374 kts 288°
2026-05-06 17:29 35.38273 -91.67400 32685 ft 373 kts 288°
2026-05-06 17:29 35.39494 -91.70196 33036 ft 371 kts 288°
2026-05-06 17:30 35.40708 -91.72976 33422 ft 367 kts 288°
2026-05-06 17:30 35.41905 -91.75717 33805 ft 364 kts 288°
2026-05-06 17:30 35.43097 -91.78451 34077 ft 363 kts 288°
2026-05-06 17:30 35.44284 -91.81175 34390 ft 361 kts 287°
2026-05-06 17:31 35.45463 -91.83887 34663 ft 360 kts 287°
2026-05-06 17:31 35.46636 -91.86591 34884 ft 360 kts 287°
2026-05-06 17:31 35.47797 -91.89271 35059 ft 360 kts 287°
2026-05-06 17:31 35.48976 -91.91989 35179 ft 362 kts 287°
2026-05-06 17:32 35.50163 -91.94735 35239 ft 365 kts 287°
2026-05-06 17:32 35.52562 -92.00268 35478 ft 368 kts 287°
2026-05-06 17:32 35.53760 -92.03036 35699 ft 366 kts 287°
2026-05-06 17:33 35.54954 -92.05789 35928 ft 364 kts 287°
2026-05-06 17:33 35.56140 -92.08532 36056 ft 362 kts 287°
2026-05-06 17:33 35.57319 -92.11264 36082 ft 362 kts 287°
2026-05-06 17:34 35.59666 -92.16713 36094 ft 364 kts 287°
2026-05-06 17:34 35.61986 -92.22235 36115 ft 362 kts 286°
2026-05-06 17:35 35.64411 -92.27734 36091 ft 367 kts 287°
2026-05-06 17:35 35.66790 -92.33290 36104 ft 366 kts 286°
2026-05-06 17:36 35.70360 -92.41569 35953 ft 364 kts 287°
2026-05-06 17:36 35.71536 -92.44330 35845 ft 363 kts 287°
2026-05-06 17:36 35.72702 -92.47090 35769 ft 363 kts 287°
2026-05-06 17:37 35.75045 -92.52613 35596 ft 365 kts 287°
2026-05-06 17:37 35.77358 -92.58123 35431 ft 365 kts 287°
2026-05-06 17:38 35.79722 -92.63659 35234 ft 366 kts 287°
2026-05-06 17:38 35.82101 -92.69213 35061 ft 367 kts 287°
2026-05-06 17:39 35.84470 -92.74788 34923 ft 368 kts 287°
2026-05-06 17:39 35.85660 -92.77593 34819 ft 369 kts 287°
2026-05-06 17:39 35.86841 -92.80403 34738 ft 370 kts 286°
2026-05-06 17:40 35.89201 -92.86027 34538 ft 372 kts 287°
2026-05-06 17:40 35.91600 -92.91696 34385 ft 374 kts 287°
2026-05-06 17:41 35.92768 -92.94553 34281 ft 372 kts 285°
2026-05-06 17:41 35.93917 -92.97417 34178 ft 374 kts 287°
2026-05-06 17:41 35.96312 -93.03102 34100 ft 370 kts 286°
2026-05-06 17:42 35.98705 -93.08745 34137 ft 371 kts 287°
2026-05-06 17:42 36.01045 -93.14374 34115 ft 371 kts 286°
2026-05-06 17:43 36.03443 -93.20005 34132 ft 369 kts 286°
2026-05-06 17:43 36.05820 -93.25598 34137 ft 369 kts 288°
2026-05-06 17:44 36.08262 -93.31156 34131 ft 368 kts 287°
2026-05-06 17:44 36.10566 -93.36723 34122 ft 365 kts 285°
2026-05-06 17:45 36.12865 -93.42342 34098 ft 365 kts 284°
2026-05-06 17:45 36.15093 -93.47977 34137 ft 366 kts 285°
2026-05-06 17:46 36.17415 -93.53594 34128 ft 367 kts 285°
2026-05-06 17:46 36.19743 -93.59219 34132 ft 367 kts 285°
2026-05-06 17:47 36.22057 -93.64843 34132 ft 366 kts 285°
2026-05-06 17:47 36.24343 -93.70416 34132 ft 365 kts 285°
2026-05-06 17:48 36.26611 -93.76037 34156 ft 365 kts 285°
2026-05-06 17:48 36.28933 -93.81644 34139 ft 366 kts 285°
2026-05-06 17:49 36.31253 -93.87257 34150 ft 366 kts 285°
2026-05-06 17:49 36.33551 -93.92863 34127 ft 367 kts 285°
2026-05-06 17:50 36.35863 -93.98498 34157 ft 366 kts 285°
2026-05-06 17:50 36.38159 -94.04138 34138 ft 366 kts 285°
2026-05-06 17:51 36.40450 -94.09786 34150 ft 366 kts 285°
2026-05-06 17:51 36.42738 -94.15433 34145 ft 366 kts 285°
2026-05-06 17:52 36.45008 -94.21039 34157 ft 366 kts 285°
2026-05-06 17:52 36.47297 -94.26688 34160 ft 366 kts 285°
2026-05-06 17:53 36.49584 -94.32347 34154 ft 366 kts 285°
2026-05-06 17:53 36.51849 -94.38001 34159 ft 365 kts 285°
2026-05-06 17:54 36.54113 -94.43625 34151 ft 366 kts 285°
2026-05-06 17:54 36.56396 -94.49282 34150 ft 366 kts 284°
2026-05-06 17:55 36.58642 -94.54937 34155 ft 364 kts 284°
2026-05-06 17:55 36.60901 -94.60582 34139 ft 364 kts 284°
2026-05-06 17:56 36.63160 -94.66225 34151 ft 364 kts 284°
2026-05-06 17:56 36.65406 -94.71839 34154 ft 364 kts 284°
2026-05-06 17:57 36.67652 -94.77497 34150 ft 365 kts 284°
2026-05-06 17:57 36.69916 -94.83158 34152 ft 365 kts 284°
2026-05-06 17:58 36.72163 -94.88833 34154 ft 365 kts 284°
2026-05-06 17:58 36.74396 -94.94480 34149 ft 365 kts 284°
2026-05-06 17:59 36.76640 -95.00165 34146 ft 366 kts 284°
2026-05-06 17:59 36.78887 -95.05860 34153 ft 366 kts 284°
2026-05-06 18:00 36.81128 -95.11551 34160 ft 365 kts 284°
2026-05-06 18:00 36.83353 -95.17208 34154 ft 366 kts 283°
2026-05-06 18:01 36.85593 -95.22918 34161 ft 366 kts 283°
2026-05-06 18:01 36.87831 -95.28633 34156 ft 366 kts 283°
2026-05-06 18:02 36.90064 -95.34343 34160 ft 366 kts 283°
2026-05-06 18:02 36.92281 -95.40023 34148 ft 366 kts 283°
2026-05-06 18:03 36.94516 -95.45764 34149 ft 368 kts 282°
2026-05-06 18:03 36.96755 -95.51525 34150 ft 369 kts 282°
2026-05-06 18:04 36.98995 -95.57302 34149 ft 370 kts 282°
2026-05-06 18:04 37.01223 -95.63049 34143 ft 370 kts 282°
2026-05-06 18:05 37.03463 -95.68837 34147 ft 369 kts 282°
2026-05-06 18:05 37.05696 -95.74621 34145 ft 369 kts 282°
2026-05-06 18:06 37.07925 -95.80405 34157 ft 369 kts 282°
2026-05-06 18:06 37.10148 -95.86187 34163 ft 368 kts 282°
2026-05-06 18:07 37.12354 -95.91934 34161 ft 368 kts 282°
2026-05-06 18:07 37.14572 -95.97723 34160 ft 368 kts 282°
2026-05-06 18:08 37.16782 -96.03500 34155 ft 368 kts 282°
2026-05-06 18:08 37.18976 -96.09251 34155 ft 368 kts 282°
2026-05-06 18:09 37.21185 -96.15051 34160 ft 368 kts 282°
2026-05-06 18:09 37.23392 -96.20853 34156 ft 369 kts 282°
2026-05-06 18:10 37.25595 -96.26655 34162 ft 368 kts 282°
2026-05-06 18:10 37.27779 -96.32416 34164 ft 368 kts 282°
2026-05-06 18:11 37.29970 -96.38212 34170 ft 367 kts 282°
2026-05-06 18:11 37.32157 -96.44005 34168 ft 367 kts 282°
2026-05-06 18:12 37.34337 -96.49796 34174 ft 367 kts 282°
2026-05-06 18:12 37.36502 -96.55548 34174 ft 366 kts 282°
2026-05-06 18:13 37.38675 -96.61338 34176 ft 366 kts 282°
2026-05-06 18:13 37.40847 -96.67133 34178 ft 366 kts 281°
2026-05-06 18:14 37.43012 -96.72925 34176 ft 366 kts 281°
2026-05-06 18:14 37.45176 -96.78722 34178 ft 366 kts 282°
2026-05-06 18:15 37.47327 -96.84500 34175 ft 367 kts 282°
2026-05-06 18:15 37.49490 -96.90314 34174 ft 367 kts 282°
2026-05-06 18:16 37.51651 -96.96134 34176 ft 367 kts 281°
2026-05-06 18:16 37.53808 -97.01961 34178 ft 367 kts 281°
2026-05-06 18:17 37.55951 -97.07756 34179 ft 367 kts 281°
2026-05-06 18:17 37.58103 -97.13588 34170 ft 367 kts 281°
2026-05-06 18:18 37.60253 -97.19427 34170 ft 367 kts 281°
2026-05-06 18:18 37.62404 -97.25279 34165 ft 368 kts 281°
2026-05-06 18:19 37.64536 -97.31091 34167 ft 368 kts 281°
2026-05-06 18:19 37.66681 -97.36948 34174 ft 367 kts 281°
2026-05-06 18:20 37.68822 -97.42804 34185 ft 367 kts 281°
2026-05-06 18:20 37.70960 -97.48665 34184 ft 367 kts 281°
2026-05-06 18:21 37.73080 -97.54488 34187 ft 367 kts 281°
2026-05-06 18:21 37.75102 -97.60378 34188 ft 361 kts 278°
2026-05-06 18:22 37.76787 -97.66342 34180 ft 360 kts 277°
2026-05-06 18:22 37.78459 -97.72296 34183 ft 360 kts 277°
2026-05-06 18:23 37.80124 -97.78216 34192 ft 360 kts 277°
2026-05-06 18:23 37.81802 -97.84175 34183 ft 360 kts 277°
2026-05-06 18:24 37.83479 -97.90135 34184 ft 360 kts 277°
2026-05-06 18:24 37.85153 -97.96098 34181 ft 359 kts 277°
2026-05-06 18:25 37.86809 -98.02011 34184 ft 359 kts 277°
2026-05-06 18:25 37.88475 -98.07968 34186 ft 359 kts 277°
2026-05-06 18:26 37.90136 -98.13917 34182 ft 359 kts 277°
2026-05-06 18:26 37.91793 -98.19875 34185 ft 358 kts 277°
2026-05-06 18:27 37.93435 -98.25792 34187 ft 358 kts 277°
2026-05-06 18:27 37.95086 -98.31749 34195 ft 358 kts 277°
2026-05-06 18:28 37.96734 -98.37708 34195 ft 359 kts 277°
2026-05-06 18:28 37.98380 -98.43683 34194 ft 359 kts 277°
2026-05-06 18:29 38.00027 -98.49669 34201 ft 360 kts 277°
2026-05-06 18:29 38.01666 -98.55644 34199 ft 362 kts 278°
2026-05-06 18:30 38.03322 -98.61692 34198 ft 364 kts 278°
2026-05-06 18:30 38.04984 -98.67773 34208 ft 365 kts 278°
2026-05-06 18:31 38.06637 -98.73842 34209 ft 367 kts 278°
2026-05-06 18:31 38.08308 -98.79981 34203 ft 369 kts 278°
2026-05-06 18:32 38.09982 -98.86151 34200 ft 371 kts 278°
2026-05-06 18:32 38.11662 -98.92359 34202 ft 372 kts 278°
2026-05-06 18:33 38.13333 -98.98544 34198 ft 374 kts 278°
2026-05-06 18:33 38.15017 -99.04797 34221 ft 375 kts 278°
2026-05-06 18:34 38.16707 -99.11082 34201 ft 376 kts 278°
2026-05-06 18:34 38.18396 -99.17381 34200 ft 377 kts 278°
2026-05-06 18:35 38.20088 -99.23702 34201 ft 378 kts 278°
2026-05-06 18:35 38.21767 -99.29994 34199 ft 378 kts 278°
2026-05-06 18:36 38.23453 -99.36334 34199 ft 379 kts 278°
2026-05-06 18:36 38.25140 -99.42691 34210 ft 379 kts 278°
2026-05-06 18:37 38.26825 -99.49056 34198 ft 380 kts 278°
2026-05-06 18:37 38.28497 -99.55380 34203 ft 379 kts 278°
2026-05-06 18:38 38.30173 -99.61739 34204 ft 379 kts 278°
2026-05-06 18:38 38.31845 -99.68104 34199 ft 379 kts 278°
2026-05-06 18:39 38.33513 -99.74464 34196 ft 379 kts 278°
2026-05-06 18:40 38.35994 -99.83958 34200 ft 378 kts 278°
2026-05-06 18:40 38.37648 -99.90314 34209 ft 377 kts 278°
2026-05-06 18:41 38.39297 -99.96664 34213 ft 378 kts 278°
2026-05-06 18:41 38.40946 -100.03022 34207 ft 378 kts 278°
2026-05-06 18:42 38.42579 -100.09341 34222 ft 378 kts 278°
2026-05-06 18:42 38.44225 -100.15727 34215 ft 380 kts 278°
2026-05-06 18:43 38.45875 -100.22142 34207 ft 381 kts 278°
2026-05-06 18:43 38.47525 -100.28575 34209 ft 382 kts 278°
2026-05-06 18:44 38.49169 -100.34999 34205 ft 384 kts 278°
2026-05-06 18:44 38.50824 -100.41482 34208 ft 385 kts 278°
2026-05-06 18:45 38.52481 -100.47999 34214 ft 387 kts 279°
2026-05-06 18:45 38.54144 -100.54546 34228 ft 388 kts 279°
2026-05-06 18:46 38.55796 -100.61067 34213 ft 389 kts 279°
2026-05-06 18:46 38.57463 -100.67669 34225 ft 391 kts 279°
2026-05-06 18:47 38.59131 -100.74293 34220 ft 392 kts 279°
2026-05-06 18:47 38.60800 -100.80939 34215 ft 394 kts 279°
2026-05-06 18:48 38.62462 -100.87570 34225 ft 395 kts 280°
2026-05-06 18:48 38.64135 -100.94272 34216 ft 396 kts 280°
2026-05-06 18:49 38.65811 -101.01000 34221 ft 398 kts 280°
2026-05-06 18:49 38.67490 -101.07751 34222 ft 399 kts 280°
2026-05-06 18:50 38.69159 -101.14488 34200 ft 400 kts 280°
2026-05-06 18:50 38.70835 -101.21275 34202 ft 400 kts 280°
2026-05-06 18:51 38.72511 -101.28079 34214 ft 401 kts 280°
2026-05-06 18:51 38.74188 -101.34908 34201 ft 402 kts 280°
2026-05-06 18:52 38.75852 -101.41705 34195 ft 404 kts 281°
2026-05-06 18:52 38.77530 -101.48578 34194 ft 404 kts 280°
2026-05-06 18:53 38.79207 -101.55458 34201 ft 405 kts 280°
2026-05-06 18:53 38.80880 -101.62349 34190 ft 404 kts 281°
2026-05-06 18:54 38.82536 -101.69187 34196 ft 405 kts 280°
2026-05-06 18:54 38.84204 -101.76092 34194 ft 406 kts 281°
2026-05-06 18:55 38.85827 -101.83019 34183 ft 405 kts 279°
2026-05-06 18:55 38.87288 -101.89993 34183 ft 404 kts 278°
2026-05-06 18:56 38.88720 -101.96965 34185 ft 404 kts 278°
2026-05-06 18:56 38.90165 -102.03941 34186 ft 405 kts 279°
2026-05-06 18:57 38.91612 -102.10908 34188 ft 407 kts 279°
2026-05-06 18:57 38.93077 -102.17957 34188 ft 410 kts 279°
2026-05-06 18:58 38.94545 -102.25034 34186 ft 411 kts 279°
2026-05-06 18:58 38.96016 -102.32152 34186 ft 413 kts 279°
2026-05-06 18:59 38.97485 -102.39291 34187 ft 414 kts 279°
2026-05-06 18:59 38.98944 -102.46394 34185 ft 414 kts 280°
2026-05-06 19:00 39.00408 -102.53548 34183 ft 414 kts 280°
2026-05-06 19:00 39.01868 -102.60708 34181 ft 414 kts 280°
2026-05-06 19:01 39.03323 -102.67873 34186 ft 414 kts 280°
2026-05-06 19:01 39.04766 -102.75001 34185 ft 415 kts 280°
2026-05-06 19:02 39.06215 -102.82186 34185 ft 415 kts 280°
2026-05-06 19:02 39.07661 -102.89378 34185 ft 416 kts 280°
2026-05-06 19:03 39.09107 -102.96593 34184 ft 416 kts 280°
2026-05-06 19:03 39.10549 -103.03818 34185 ft 417 kts 280°
2026-05-06 19:04 39.11991 -103.11060 34186 ft 418 kts 280°
2026-05-06 19:04 39.13418 -103.18262 34182 ft 418 kts 280°
2026-05-06 19:05 39.14852 -103.25526 34185 ft 419 kts 280°
2026-05-06 19:05 39.16285 -103.32804 34187 ft 420 kts 281°
2026-05-06 19:06 39.17717 -103.40102 34181 ft 421 kts 281°
2026-05-06 19:06 39.19147 -103.47420 34189 ft 421 kts 281°
2026-05-06 19:07 39.20576 -103.54761 34185 ft 422 kts 281°
2026-05-06 19:07 39.21993 -103.62060 34182 ft 423 kts 281°
2026-05-06 19:08 39.23418 -103.69431 34185 ft 424 kts 281°
2026-05-06 19:08 39.24839 -103.76811 34183 ft 424 kts 281°
2026-05-06 19:09 39.26260 -103.84211 34189 ft 425 kts 281°
2026-05-06 19:09 39.27667 -103.91570 34185 ft 425 kts 281°
2026-05-06 19:10 39.29079 -103.98984 34184 ft 426 kts 281°
2026-05-06 19:10 39.30492 -104.06427 34189 ft 428 kts 282°
2026-05-06 19:11 39.31904 -104.13899 34196 ft 430 kts 282°
2026-05-06 19:11 39.33309 -104.21358 34188 ft 431 kts 282°
2026-05-06 19:12 39.34723 -104.28887 34198 ft 432 kts 282°
2026-05-06 19:12 39.36132 -104.36426 34192 ft 432 kts 282°
2026-05-06 19:13 39.37539 -104.43977 34199 ft 432 kts 282°
2026-05-06 19:13 39.38939 -104.51532 34186 ft 432 kts 282°
2026-05-06 19:14 39.40335 -104.59086 34196 ft 432 kts 282°
2026-05-06 19:14 39.41717 -104.66595 34190 ft 432 kts 282°
2026-05-06 19:15 39.43104 -104.74166 34194 ft 432 kts 282°
2026-05-06 19:15 39.44487 -104.81740 34190 ft 433 kts 282°
2026-05-06 19:16 39.45866 -104.89321 34196 ft 433 kts 282°
2026-05-06 19:16 39.47234 -104.96867 34218 ft 434 kts 282°
2026-05-06 19:17 39.48607 -105.04479 34191 ft 434 kts 282°
2026-05-06 19:17 39.49977 -105.12103 34186 ft 435 kts 282°
2026-05-06 19:18 39.51343 -105.19729 34193 ft 435 kts 282°
2026-05-06 19:18 39.52704 -105.27374 34190 ft 437 kts 282°
2026-05-06 19:19 39.54068 -105.35057 34174 ft 438 kts 283°
2026-05-06 19:19 39.55421 -105.42703 34177 ft 439 kts 283°
2026-05-06 19:20 39.56782 -105.50432 34170 ft 441 kts 283°
2026-05-06 19:20 39.58145 -105.58205 34158 ft 442 kts 283°
2026-05-06 19:21 39.59503 -105.65983 34143 ft 443 kts 283°
2026-05-06 19:21 39.60861 -105.73789 34139 ft 444 kts 283°
2026-05-06 19:22 39.62206 -105.81565 34130 ft 445 kts 283°
2026-05-06 19:22 39.63558 -105.89409 34137 ft 445 kts 283°
2026-05-06 19:23 39.64906 -105.97259 34130 ft 446 kts 283°
2026-05-06 19:23 39.66251 -106.05122 34133 ft 446 kts 284°
2026-05-06 19:24 39.67581 -106.12942 34124 ft 447 kts 284°
2026-05-06 19:24 39.68918 -106.20834 34133 ft 447 kts 284°
2026-05-06 19:25 39.70249 -106.28722 34129 ft 447 kts 284°
2026-05-06 19:25 39.71574 -106.36611 34131 ft 448 kts 284°
2026-05-06 19:26 39.72895 -106.44512 34137 ft 448 kts 284°
2026-05-06 19:26 39.74202 -106.52366 34142 ft 448 kts 284°
2026-05-06 19:27 39.75511 -106.60267 34144 ft 448 kts 284°
2026-05-06 19:27 39.76818 -106.68182 34134 ft 448 kts 284°
2026-05-06 19:28 39.78118 -106.76093 34137 ft 447 kts 284°
2026-05-06 19:28 39.79402 -106.83946 34144 ft 447 kts 284°
2026-05-06 19:29 39.80691 -106.91857 34147 ft 447 kts 284°
2026-05-06 19:29 39.81976 -106.99788 34141 ft 448 kts 285°
2026-05-06 19:30 39.83253 -107.07714 34145 ft 448 kts 285°
2026-05-06 19:30 39.84529 -107.15653 34157 ft 449 kts 285°
2026-05-06 19:31 39.85793 -107.23559 34165 ft 449 kts 285°
2026-05-06 19:31 39.87699 -107.35552 34143 ft 452 kts 286°
2026-05-06 19:32 39.88967 -107.43578 34150 ft 452 kts 286°
2026-05-06 19:32 39.90229 -107.51610 34154 ft 453 kts 286°
2026-05-06 19:33 39.91480 -107.59609 34156 ft 455 kts 287°
2026-05-06 19:33 39.92740 -107.67697 34162 ft 456 kts 287°
2026-05-06 19:34 39.93998 -107.75812 34164 ft 457 kts 287°
2026-05-06 19:34 39.95253 -107.83951 34159 ft 458 kts 287°
2026-05-06 19:35 39.96495 -107.92043 34158 ft 459 kts 287°
2026-05-06 19:35 39.97738 -108.00203 34158 ft 459 kts 287°
2026-05-06 19:36 39.98979 -108.08364 34162 ft 459 kts 287°
2026-05-06 19:36 40.00215 -108.16530 34154 ft 459 kts 287°
2026-05-06 19:37 40.01434 -108.24639 34155 ft 458 kts 287°
2026-05-06 19:37 40.02456 -108.31465 34164 ft 458 kts 287°
2026-05-06 19:38 40.03867 -108.40936 34178 ft 457 kts 287°
2026-05-06 19:38 40.05077 -108.49093 34176 ft 457 kts 288°
2026-05-06 19:39 40.06279 -108.57244 34179 ft 458 kts 288°
2026-05-06 19:39 40.07474 -108.65394 34200 ft 458 kts 288°
2026-05-06 19:40 40.08658 -108.73514 34198 ft 458 kts 288°
2026-05-06 19:40 40.09846 -108.81690 34180 ft 458 kts 288°
2026-05-06 19:41 40.10858 -108.89921 34181 ft 467 kts 280°
2026-05-06 19:41 40.10645 -108.98487 34190 ft 474 kts 275°
2026-05-06 19:42 40.10321 -109.07089 34195 ft 474 kts 276°
2026-05-06 19:42 40.10044 -109.15641 34191 ft 475 kts 276°
2026-05-06 19:43 40.09791 -109.24268 34186 ft 476 kts 276°
2026-05-06 19:43 40.09536 -109.32899 34183 ft 476 kts 276°
2026-05-06 19:44 40.09318 -109.40089 34183 ft 477 kts 277°
2026-05-06 19:44 40.09047 -109.48751 34181 ft 478 kts 277°
2026-05-06 19:45 40.08728 -109.58822 34190 ft 478 kts 277°
2026-05-06 19:45 40.08442 -109.67509 34187 ft 479 kts 277°
2026-05-06 19:46 40.08201 -109.74726 34197 ft 479 kts 277°
2026-05-06 19:46 40.07903 -109.83428 34190 ft 480 kts 277°
2026-05-06 19:47 40.07548 -109.93546 34196 ft 480 kts 277°
2026-05-06 19:47 40.07291 -110.00785 34196 ft 480 kts 276°
2026-05-06 19:48 40.06974 -110.09497 34197 ft 481 kts 276°
2026-05-06 19:48 40.06650 -110.18211 34193 ft 481 kts 276°
2026-05-06 19:49 40.06484 -110.22565 34067 ft 478 kts 276°
2026-05-06 19:49 40.06315 -110.26860 33776 ft 469 kts 277°
2026-05-06 19:49 40.06148 -110.31079 33530 ft 463 kts 277°
2026-05-06 19:49 40.05986 -110.35284 33011 ft 467 kts 277°
2026-05-06 19:50 40.05830 -110.39557 32329 ft 475 kts 277°
2026-05-06 19:50 40.05668 -110.43826 31664 ft 478 kts 277°
2026-05-06 19:50 40.05498 -110.48137 30956 ft 474 kts 276°
2026-05-06 19:50 40.05321 -110.52423 30266 ft 471 kts 277°
2026-05-06 19:51 40.05139 -110.56694 29551 ft 473 kts 276°
2026-05-06 19:51 40.04957 -110.60987 28886 ft 474 kts 276°
2026-05-06 19:51 40.04780 -110.65282 28178 ft 474 kts 276°
2026-05-06 19:51 40.04603 -110.69578 27487 ft 474 kts 276°
2026-05-06 19:52 40.04426 -110.73891 26790 ft 479 kts 276°
2026-05-06 19:52 40.04248 -110.78198 26107 ft 484 kts 275°
2026-05-06 19:52 40.04057 -110.82595 25387 ft 486 kts 274°
2026-05-06 19:52 40.03865 -110.86994 24717 ft 486 kts 274°
2026-05-06 19:53 40.03670 -110.91348 23992 ft 473 kts 274°
2026-05-06 19:53 40.03491 -110.95551 23270 ft 455 kts 274°
2026-05-06 19:53 40.03304 -110.99609 22557 ft 440 kts 274°
2026-05-06 19:53 40.03117 -111.03524 21868 ft 425 kts 274°
2026-05-06 19:54 40.02943 -111.07323 21156 ft 414 kts 274°
2026-05-06 19:54 40.02781 -111.11023 20486 ft 404 kts 274°
2026-05-06 19:54 40.02621 -111.14593 19780 ft 396 kts 274°
2026-05-06 19:54 40.02459 -111.18143 19094 ft 389 kts 274°
2026-05-06 19:55 40.02317 -111.21660 18400 ft 390 kts 276°
2026-05-06 19:55 40.02525 -111.25190 17707 ft 389 kts 287°
2026-05-06 19:55 40.03237 -111.28564 17136 ft 383 kts 297°
2026-05-06 19:55 40.04346 -111.31686 16887 ft 380 kts 302°
2026-05-06 19:56 40.05546 -111.34767 16616 ft 382 kts 302°
2026-05-06 19:56 40.06724 -111.37874 16360 ft 382 kts 301°
2026-05-06 19:56 40.07854 -111.41021 16123 ft 382 kts 301°
2026-05-06 19:56 40.09067 -111.44036 15862 ft 379 kts 303°
2026-05-06 19:57 40.10211 -111.47149 15580 ft 381 kts 298°
2026-05-06 19:57 40.11306 -111.50299 15364 ft 381 kts 300°
2026-05-06 19:57 40.12476 -111.53422 15111 ft 384 kts 301°
2026-05-06 19:57 40.13670 -111.56556 14870 ft 386 kts 300°
2026-05-06 19:58 40.14845 -111.59695 14608 ft 384 kts 300°
2026-05-06 19:58 40.16013 -111.62848 14366 ft 385 kts 299°
2026-05-06 19:58 40.17175 -111.65997 14113 ft 385 kts 299°
2026-05-06 19:58 40.18334 -111.69147 13860 ft 384 kts 299°
2026-05-06 19:59 40.19477 -111.72245 13609 ft 378 kts 298°
2026-05-06 19:59 40.20594 -111.75281 13338 ft 361 kts 298°
2026-05-06 19:59 40.21651 -111.78158 13070 ft 341 kts 298°
2026-05-06 19:59 40.22648 -111.80870 12803 ft 321 kts 298°
2026-05-06 20:00 40.23592 -111.83435 12541 ft 305 kts 298°
2026-05-06 20:00 40.24490 -111.85878 12277 ft 291 kts 298°
2026-05-06 20:00 40.25340 -111.88195 12176 ft 271 kts 298°
2026-05-06 20:00 40.26121 -111.90330 12054 ft 250 kts 298°
2026-05-06 20:01 40.26890 -111.92241 11903 ft 230 kts 309°
2026-05-06 20:01 40.28073 -111.93454 11757 ft 209 kts 336°
2026-05-06 20:01 40.29423 -111.94061 11491 ft 203 kts 349°
2026-05-06 20:01 40.30828 -111.94164 11240 ft 202 kts 357°
2026-05-06 20:02 40.32246 -111.94179 11019 ft 207 kts 358°
2026-05-06 20:02 40.33711 -111.94190 10783 ft 213 kts 358°
2026-05-06 20:02 40.35200 -111.94205 10529 ft 216 kts 357°
2026-05-06 20:02 40.36701 -111.94225 10281 ft 216 kts 358°
2026-05-06 20:03 40.38199 -111.94240 10030 ft 214 kts 358°
2026-05-06 20:03 40.39674 -111.94259 9760 ft 210 kts 358°
2026-05-06 20:03 40.41110 -111.94281 9510 ft 208 kts 357°
2026-05-06 20:03 40.42558 -111.94296 9258 ft 208 kts 358°
2026-05-06 20:04 40.44012 -111.94322 9070 ft 209 kts 358°
2026-05-06 20:04 40.45477 -111.94347 9035 ft 213 kts 358°
2026-05-06 20:04 40.46963 -111.94370 9021 ft 213 kts 358°
2026-05-06 20:04 40.48443 -111.94394 9012 ft 212 kts 358°
2026-05-06 20:05 40.49910 -111.94417 9002 ft 211 kts 358°
2026-05-06 20:05 40.51359 -111.94440 9003 ft 211 kts 358°
2026-05-06 20:05 40.52824 -111.94466 9007 ft 211 kts 357°
2026-05-06 20:05 40.54321 -111.94600 8699 ft 219 kts 354°
2026-05-06 20:06 40.55834 -111.94781 8415 ft 217 kts 353°
2026-05-06 20:06 40.57333 -111.94967 8123 ft 215 kts 353°
2026-05-06 20:06 40.58806 -111.95143 7833 ft 211 kts 354°
2026-05-06 20:06 40.60254 -111.95315 7569 ft 206 kts 353°
2026-05-06 20:07 40.61664 -111.95481 7318 ft 201 kts 353°
2026-05-06 20:07 40.63019 -111.95638 7040 ft 196 kts 354°
2026-05-06 20:07 40.64353 -111.95792 6832 ft 189 kts 354°
2026-05-06 20:07 40.65652 -111.95944 6574 ft 186 kts 353°
2026-05-06 20:08 40.66929 -111.96090 6333 ft 182 kts 354°
2026-05-06 20:08 40.68183 -111.96234 6092 ft 180 kts 353°
2026-05-06 20:08 40.69422 -111.96381 5866 ft 179 kts 353°
2026-05-06 20:08 40.70660 -111.96525 5629 ft 178 kts 353°
2026-05-06 20:09 40.71883 -111.96665 5377 ft 176 kts 351°
2026-05-06 20:09 40.73087 -111.96805 5145 ft 171 kts 351°
2026-05-06 20:09 40.74238 -111.96938 4937 ft 163 kts 351°
2026-05-06 20:09 40.75296 -111.97060 4747 ft 145 kts 351°
2026-05-06 20:10 40.76251 -111.97178 4561 ft 131 kts 350°
2026-05-06 20:10 40.77153 -111.97287 4305 ft 131 kts 353°
2026-05-06 20:10 40.78025 -111.97389 4231 ft 117 kts 353°
2026-05-06 20:10 40.78676 -111.97473 4230 ft 68 kts 356°
2026-05-06 20:11 40.79006 -111.97505 4231 ft 31 kts 354°
2026-05-06 20:11 40.79140 -111.97553 4231 ft 18 kts 333°
2026-05-06 20:11 40.79235 -111.97654 4230 ft 17 kts 311°
2026-05-06 20:11 40.79294 -111.97731 4230 ft 8 kts 325°
2026-05-06 20:12 40.79346 -111.97752 4230 ft 8 kts 352°
2026-05-06 20:12 40.79400 -111.97758 4230 ft 8 kts 356°
2026-05-06 20:12 40.79457 -111.97765 4229 ft 10 kts 353°
2026-05-06 20:12 40.79548 -111.97781 4229 ft 14 kts 351°
2026-05-06 20:13 40.79642 -111.97801 4229 ft 13 kts 345°
2026-05-06 20:13 40.79706 -111.97883 4230 ft 13 kts 329°
2026-05-06 20:13 40.79795 -111.97906 4230 ft 14 kts 356°
2026-05-06 20:13 40.79894 -111.97914 4230 ft 15 kts 356°
2026-05-06 20:14 40.80003 -111.97927 4230 ft 16 kts 354°
2026-05-06 20:14 40.80116 -111.97943 4230 ft 17 kts 354°
2026-05-06 20:14 40.80241 -111.97957 4230 ft 18 kts 351°
2026-05-06 20:14 40.80359 -111.97996 4230 ft 17 kts 345°
2026-05-06 20:15 40.80476 -111.98012 4230 ft 17 kts 355°
2026-05-06 20:15 40.80587 -111.98031 4230 ft 16 kts 338°
2026-05-06 20:15 40.80611 -111.98159 4230 ft 15 kts 264°
2026-05-06 20:15 40.80591 -111.98291 4230 ft 15 kts 261°
2026-05-06 20:16 40.80543 -111.98340 4230 ft 4 kts 174°
2026-05-06 20:16 40.80538 -111.98340 4230 ft 1 kts 181°
2026-05-06 20:16 40.80537 -111.98340 4230 ft 0 kts 181°